Regional Weather Roundup
Issued by NWS Goodland, KS

Home | Current Version | Previous Version | Text Only | Print | Product List | Glossary Off
Versions: 1 2 3 4 5 6 7 8 9 10 11 12 13 14 15 16 17 18 19 20 21 22 23 24 25 26 27 28 29 30 31 32 33 34 35 36 37 38 39 40 41 42 43 44 45 46 47 48 49 50

000
ASUS43 KGLD 010008
RWRGLD

GOODLAND FORECAST AREA HOURLY WEATHER ROUNDUP
NATIONAL WEATHER SERVICE GOODLAND KS
600 PM MDT MON AUG 31 2015

...OFFICIAL OBSERVATIONS...

CITY           SKY/WX    TMP DP  RH WIND       PRES   REMARKS
GOODLAND KS    SUNNY     93  47  20 SE12      29.92R
HILL CITY KS   SUNNY     96  51  21 S12       29.86S
IMPERIAL NEB   PTSUNNY   86  60  41 N8        29.92S
MCCOOK NEB     SUNNY     96  53  23 E5        29.86S
AKRON CO       CLOUDY    84  46  26 E10       30.03R
BURLINGTON CO  SUNNY     89  47  23 E6        29.96S
LIMON CO       PTSUNNY   73  51  46 W25G33    30.10R
$$

...UNOFFICIAL OBSERVATIONS...

CITY           SKY/WX    TMP DP  RH WIND       PRES   REMARKS
COLBY KS       SUNNY     93  55  27 SE12      29.91S
GOVE KS          N/A     94  32  11 MISG        N/A
LENORA KS        N/A     95  32  11 MISG        N/A
NORTON KS      SUNNY     93  45  18 SE5       29.85
SHARON SPRINGS   N/A     91  55  29 SE15G22     N/A
KIT CARSON CO    N/A     91  52  26 MISG        N/A
YUMA CO          N/A     84  53  33 E10         N/A
$$



USA.gov is the U.S. government's official web portal to all federal, state and local government web resources and services.